Weather History for KPNE - December, 2012

Change the Weather History Date:

Wednesday, December 12, 2012

  Actual Average Record
Temperature  
Mean Temperature 39 °F -  
Max Temperature 44 °F 44 °F 59 °F (2010)
Min Temperature 34 °F 30 °F 21 °F (2011)
Degree Days  
Heating Degree Days 26    
Moisture  
Dew Point 25 °F    
Average Humidity 60    
Maximum Humidity 70    
Minimum Humidity 45    
Precipitation  
Precipitation 0.00 in - - ()
Sea Level Pressure  
Sea Level Pressure 30.38 in    
Wind  
Wind Speed 3 mph (NNW)    
Max Wind Speed 9 mph    
Max Gust Speed -    
Visibility 10 miles    
Events      
Averages and records for this station are not official NWS values.
T = Trace of Precipitation, MM = Missing Value Source: NWS Daily Summary

Daily Weather History Graph

Daily Weather History Graph

Search for Another Location

Airport or City:

Trip Planner

Search our weather history database for the weather conditions in past years. The results will help you decide how hot, cold, wet, or windy it might be!

Date:

Astronomy

Dec. 12, 2012 Rise Set
Actual Time 7:13 AM EST 4:34 PM EST
Civil Twilight 6:42 AM EST 5:05 PM EST
Nautical Twilight 6:08 AM EST 5:39 PM EST
Astronomical Twilight 5:35 AM EST 6:12 PM EST
Moon 6:14 AM EST (12/12) 4:09 PM EST (12/12)
Length of Visible Light 10h 22m
Length of Day
9h 21m
Waning Crescent, 1% of the Moon is Illuminated
Dec 12
Waning Crescent
Dec 13
New
Dec 20
First Quarter
Dec 28
Full
Jan 4
Last Quarter

Hourly Weather History & Observations

Time (EST) Temp. Windchill Dew Point Humidity Pressure Visibility Wind Dir Wind Speed Gust Speed Precip Events Conditions
12:54 AM 37.0 °F - 26.1 °F 65% 30.23 in 10.0 mi Calm Calm - N/A   Clear
1:54 AM 35.1 °F 32.2 °F 26.1 °F 70% 30.25 in 10.0 mi NNW 3.5 mph - N/A   Clear
2:54 AM 35.1 °F 32.2 °F 26.1 °F 70% 30.28 in 10.0 mi NW 3.5 mph - N/A   Clear
3:54 AM 35.1 °F 31.0 °F 26.1 °F 70% 30.30 in 10.0 mi NNW 4.6 mph - N/A   Clear
4:54 AM 35.1 °F - 25.0 °F 67% 30.32 in 10.0 mi Calm Calm - N/A   Clear
5:54 AM 34.0 °F 29.8 °F 25.0 °F 70% 30.34 in 10.0 mi NNW 4.6 mph - N/A   Clear
6:54 AM 34.0 °F - 25.0 °F 70% 30.36 in 10.0 mi Calm Calm - N/A   Clear
7:54 AM 35.1 °F - 26.1 °F 70% 30.38 in 10.0 mi Calm Calm - N/A   Clear
8:54 AM 39.9 °F 37.8 °F 27.0 °F 60% 30.39 in 10.0 mi NNE 3.5 mph - N/A   Clear
9:54 AM 42.1 °F - 28.0 °F 58% 30.41 in 10.0 mi Calm Calm - N/A   Clear
10:54 AM 44.1 °F 40.8 °F 24.1 °F 45% 30.42 in 10.0 mi NW 5.8 mph - N/A   Clear
11:54 AM 44.1 °F 39.0 °F 24.1 °F 45% 30.41 in 10.0 mi NNW 9.2 mph - N/A   Clear
12:54 PM 44.1 °F 39.5 °F 24.1 °F 45% 30.40 in 10.0 mi NNE 8.1 mph - N/A   Clear
1:54 PM 44.1 °F 40.1 °F 25.0 °F 47% 30.40 in 10.0 mi North 6.9 mph - N/A   Clear
2:54 PM 43.0 °F 38.8 °F 25.0 °F 49% 30.39 in 10.0 mi NNW 6.9 mph - N/A   Clear
3:54 PM 41.0 °F 37.1 °F 25.0 °F 53% 30.40 in 10.0 mi NNW 5.8 mph - N/A   Clear
4:54 PM 41.0 °F 38.0 °F 24.1 °F 51% 30.42 in 10.0 mi NW 4.6 mph - N/A   Clear
5:54 PM 37.9 °F 34.4 °F 26.1 °F 62% 30.42 in 10.0 mi North 4.6 mph - N/A   Clear
6:54 PM 39.2 °F 35.9 °F 24.8 °F 56% 30.40 in 10.0 mi North 4.6 mph - N/A   Clear
7:54 PM 37.9 °F 35.5 °F 24.1 °F 57% 30.43 in 10.0 mi North 3.5 mph - N/A   Clear
8:54 PM 37.0 °F - 24.1 °F 59% 30.46 in 10.0 mi Calm Calm - N/A   Clear
9:54 PM 35.1 °F 31.0 °F 25.0 °F 67% 30.44 in 10.0 mi North 4.6 mph - N/A   Clear
10:54 PM 37.0 °F - 24.1 °F 59% 30.45 in 10.0 mi Calm Calm - N/A   Clear
11:54 PM 35.1 °F 31.0 °F 25.0 °F 67% 30.44 in 10.0 mi North 4.6 mph - N/A   Clear